This is the latest recevied weather packets stored in our database for station/object N6WDO. If no packets are shown the sender has not sent any weather packets the latest 10 day(s).
| Time | Temp. | Humidity | Pressure | Rain* | Wind** | Luminosity | Snow |
|---|---|---|---|---|---|---|---|
| 1778090185 | 19.44° C | 57% | 1021.4 hPa | 0 mm | - | 356 W/m² | - |
| 1778089880 | 19.44° C | 58% | 1021.4 hPa | 0 mm | - | 720 W/m² | - |
| 1778089580 | 19.44° C | 56% | 1021.4 hPa | 0 mm | - | 679 W/m² | - |
| 1778089276 | 19.44° C | 54% | 1021.5 hPa | 0 mm | - | 659 W/m² | - |
| 1778088974 | 19.44° C | 54% | 1021.4 hPa | 0 mm | - | 639 W/m² | - |
| 1778088670 | 18.89° C | 58% | 1021.4 hPa | 0 mm | - | 621 W/m² | - |
| 1778088368 | 18.89° C | 56% | 1021.5 hPa | 0 mm | - | 602 W/m² | - |
| 1778088064 | 18.33° C | 59% | 1021.7 hPa | 0 mm | - | 588 W/m² | - |
| 1778087762 | 18.89° C | 61% | 1021.4 hPa | 0 mm | - | 575 W/m² | - |
| 1778087459 | 18.33° C | 59% | 1021.5 hPa | 0 mm | - | 558 W/m² | - |
| 1778087155 | 17.78° C | 61% | 1021.4 hPa | 0 mm | - | 551 W/m² | - |
| 1778086848 | 17.22° C | 65% | 1021.5 hPa | 0 mm | - | 532 W/m² | - |
| 1778086546 | 17.22° C | 61% | 1021.4 hPa | 0 mm | - | 523 W/m² | - |
| 1778086242 | 17.78° C | 62% | 1021.4 hPa | 0 mm | - | 507 W/m² | - |
| 1778085939 | 16.67° C | 63% | 1021.4 hPa | 0 mm | - | 495 W/m² | - |
| 1778085636 | 16.67° C | 62% | 1021.4 hPa | 0 mm | - | 482 W/m² | - |
| 1778085332 | 17.22° C | 63% | 1021.7 hPa | 0 mm | - | 469 W/m² | - |
| 1778085028 | 16.67° C | 59% | 1021.5 hPa | 0 mm | - | 456 W/m² | - |
| 1778084725 | 16.11° C | 64% | 1021.7 hPa | 0 mm | - | 443 W/m² | - |
| 1778084422 | 16.11° C | 65% | 1021.7 hPa | 0 mm | - | 428 W/m² | - |
| 1778084119 | 16.67° C | 66% | 1021.8 hPa | 0 mm | - | 412 W/m² | - |
| 1778083816 | 16.67° C | 65% | 1021.5 hPa | 0 mm | - | 397 W/m² | - |
| 1778083514 | 16.11° C | 68% | 1021.8 hPa | 0 mm | - | 384 W/m² | - |
| 1778083211 | 16.11° C | 67% | 1021.5 hPa | 0 mm | - | 369 W/m² | - |
| 1778082909 | 15.56° C | 66% | 1021.7 hPa | 0 mm | - | 355 W/m² | - |
* Rain latest hour (hover to see other rain measurements)
** Current wind speed in m/s (hover to see current wind gust speed)